C/2019 B3 ( PanSTARRS )

Japanese version
Home page
Updated on March 11, 2019

---------------------------------------------------------------------

* Profile

Discovery Date January 24, 2019
Magnitude 19.6 mag
Discoverer Pan-STARRS 1 telescope (Haleakala)

* Orbital Elements

Epoch 2021 Jan. 26.0 TT = JDT 2459240.5
T 2021 Jan. 19.70594 TT                                 MPCW
q   6.8260128            (2000.0)            P               Q
z  -0.0003253      Peri.  263.86683     -0.11763945     +0.99273860
 +/-0.0001888      Node   358.43081     +0.00244684     -0.02500613
e   1.0022205      Incl.   66.53918     -0.99305336     -0.11766378
From 47 observations 2019 Jan. 24-Feb. 27, mean residual 0".4.

* Magnitudes Graph

        m1 = 5.5 + 5 log d + 10.0 log r

---------------------------------------------------------------------

The orbital elements are published on M.P.E.C. 2019-D41.
The magnitudes graphs are made with Comet for Windows.

---------------------------------------------------------------------

Copyright(C) Seiichi Yoshida (comet@aerith.net). All rights reserved.